Location: B
(0.0000°N, 0.0000°E)
Time: 17:42:01
(UTC+02:00)

ISS - All Passes

Search period start: 24 May 2016 00:00
Search period end: 03 June 2016 00:00
Orbit: 402 x 404 km, 51.6° (Epoch: 24 May)

Date Brightness Start Highest point End Pass type
(mag) Time Alt. Az. Time Alt. Az. Time Alt. Az.
24 May - 09:43:57 10° NW 09:47:09 64° SW 09:50:23 10° SSE daylight
24 May - 21:17:38 10° SSW 21:20:53 69° SE 21:24:06 10° NE visible
25 May - 08:51:26 10° NNW 08:54:29 38° NE 08:57:32 10° SE daylight
25 May - 20:25:32 10° S 20:28:12 23° SE 20:30:51 10° ENE visible
25 May - 22:04:01 10° WNW 22:04:26 10° NW 22:04:50 10° NW visible
26 May - 07:59:56 10° NNE 08:01:47 14° NE 08:03:38 10° E daylight
26 May - 09:35:52 10° W 09:38:01 16° SW 09:40:11 10° SSW daylight
26 May - 21:08:55 10° WSW 21:11:43 26° NW 21:14:31 10° N visible
27 May - 08:42:12 10° NW 08:45:18 45° SW 08:48:26 10° SSE daylight
27 May - 20:15:45 10° SW 20:19:01 82° NW 20:22:15 10° NNE visible
28 May - 07:49:26 10° NNW 07:52:37 54° NE 07:55:48 10° SE daylight
28 May - 19:23:23 10° S 19:26:19 31° SE 19:29:14 10° ENE daylight
29 May - 06:57:31 10° N 06:59:54 19° NE 07:02:17 10° ESE visible
29 May - 08:34:40 10° W 08:36:09 12° SW 08:37:37 10° SSW daylight
29 May - 18:32:14 10° SSE 18:33:35 12° SE 18:34:54 10° ESE daylight
29 May - 20:07:21 10° WSW 20:09:49 20° NW 20:12:17 10° N daylight
30 May - 07:40:27 10° WNW 07:43:24 32° SW 07:46:22 10° SSE daylight
30 May - 19:13:53 10° SW 19:17:06 57° NW 19:20:18 10° NNE daylight
31 May - 06:47:27 10° NNW 06:50:41 78° NE 06:53:55 10° SE visible
31 May - 18:21:15 10° SSW 18:24:22 42° SE 18:27:29 10° NE daylight
01 Jun - 05:55:13 10° N 05:57:57 25° NE 06:00:41 10° ESE visible
01 Jun - 17:29:33 10° SSE 17:31:38 16° SE 17:33:41 10° E daylight
01 Jun - 19:05:53 10° W 19:07:52 15° NW 19:09:50 10° NNW daylight
02 Jun - 06:38:44 10° WNW 06:41:26 24° SW 06:44:09 10° S visible
02 Jun - 18:12:01 10° SW 18:15:07 40° NW 18:18:12 10° NNE daylight
